User: anonymous   Login
Location: Melbourne
(37.8170°S, 144.9670°E)
Time: 05:10:43
(UTC+11:00)
Language:

ERBS - Orbit

View from above orbital plane
View from above orbital plane
View from above satellite
View from above satellite

Ground track
Ground track

The orbit data is extracted from the following two-line orbital elements,

1 15354U 84108B   15032.07245063  .00012715  00000-0  40432-3 0  6929
2 15354 057.0115 248.1743 0009467 261.1375 098.8604 15.32985935664662
Epoch (UTC): 01 February 2015 01:44:19
Eccentricity: 0.0009467
inclination: 57.0115°
perigee height: 460 km
apogee height: 473 km
right ascension of ascending node: 248.1743°
argument of perigee: 261.1375°
revolutions per day: 15.32985935
mean anomaly at epoch: 98.8604°
orbit number at epoch: 66466

The dashed part of the orbit path shows where the satellite is in the earth's shadow,  

DLR